sat.trackr.live / text

‹ back to catalog

STARLINK-1598

NORAD 46160 · 2020-057AV

PAYLOAD ACTIVE UNKNOWN

§ Identity

Operator
Country
US
Launch date
2020-08-18
Launch site
AFETR
Launch vehicle
Mass (kg)
RCS (m²)

Purposes: comms

External: N2YO · Heavens-Above · Gunter

§ Orbital elements

Epoch: 2026-09-14T22:04:53.647968Z

Period
88.26 min
Inclination
53.0216°
Eccentricity
0.0009657
Mean motion
16.31531862 rev/d
Perigee alt
182.1 km
Apogee alt
194.8 km
Semi-major
6,566.6 km
B*
9.1799e-4
RAAN
60.4662°
Arg perigee
294.1341°
Mean anomaly
65.8692°
Rev number
33,760

§ Raw data

STARLINK-15981 46160U 20057AV  26257.92006537  .05055375  12154-4  91799-3 0  99902 46160  53.0216  60.4662 0009657 294.1341  65.8692 16.31531862337602

JSON: /api/v1/satellites/46160 · /tle

For live sub-satellite position, see the globe view (requires WebGL).

§ Visibility from observer

Set your observer location to see the next 7 days of passes ≥ 10°. The values pass through the URL so the page stays shareable.

No JS? Fill the form by hand. The geolocation button needs JavaScript.